Location: ????
(32.1228°N, 34.8377°E)
Time: 01:09:47
(UTC+00:00)

Cosmos 1666 - Pass Details

Date: 21 September 2020
Orbit: 496 x 521 km, 82.5° (Epoch: 21 October)

Event Time Altitude Azimuth Distance (km) Brightness Sun altitude
Rises 02:31:24 0° 342° (NNW) 2,627 6.2 -12.8°
Reaches altitude 10° 02:33:41 10° 332° (NNW) 1,732 5.2 -12.4°
Maximum altitude 02:37:05 32° 268° (W) 892 3.3 -11.6°
Drops below altitude 10° 02:40:26 10° 205° (SSW) 1,707 5.0 -10.9°
Sets 02:42:41 0° 195° (SSW) 2,583 6.0 -10.5°
